Regional Weather Roundup
Issued by NWS Upton, NY

Current Version | Previous Version | Graphics & Text | Print | Product List | Glossary Off
Versions: 1 2 3 4 5 6 7 8 9 10 11 12 13 14 15 16 17 18 19 20 21 22 23 24 25 26 27 28 29 30 31 32 33 34 35 36 37 38 39 40 41 42 43 44 45 46 47 48 49 50

000
ASUS41 KOKX 011605
RWROKX

REGIONAL WEATHER ROUNDUP
NATIONAL WEATHER SERVICE NEW YORK NY
1200 PM EDT WED OCT 01 2014

NOTE: "FAIR" INDICATES FEW OR NO CLOUDS BELOW 12,000 FEET WITH NO
SIGNIFICANT WEATHER AND/OR OBSTRUCTIONS TO VISIBILITY.

NYZ071-072-176-178-NJZ106-104-011700-
NEW YORK CITY METRO AREA


CITY           SKY/WX    TMP DP  RH WIND       PRES   REMARKS
CENTRAL PARK   CLOUDY    63  57  81 VRB6      30.08S
LAGUARDIA APRT CLOUDY    64  58  80 NE8       30.05S
KENNEDY INTL   CLOUDY    65  58  78 N10       30.05S
NEWARK/LIBERTY LGT RAIN  63  59  87 N10       30.05F
BRNX BOT. GARD   N/A     61  57  88 N2        30.08R
TETERBORO      LGT RAIN  64  56  75 N7        30.05S
$$

NYZ177-179-078>081-011700-
LONG ISLAND NEW YORK

CITY           SKY/WX    TMP DP  RH WIND       PRES   REMARKS
FARMINGDALE    CLOUDY    64  58  80 NE14G22   30.04S
ISLIP          CLOUDY    64  59  83 N12       30.02R
SHIRLEY        CLOUDY    63  59  87 VRB3      30.04S
WESTHAMPTON    CLOUDY    62  58  86 N10       30.04F
MONTAUK POINT    N/A     61  58  90 N12G20    30.03S
$$

NYZ052-065-067-011700-
HUDSON VALLEY

CITY           SKY/WX    TMP DP  RH WIND       PRES   REMARKS
WHITE PLAINS   CLOUDY    61  58  90 N6        30.05S
NEWBURGH       CLOUDY    59  59 100 NE8       30.09S FOG
MONTGOMERY     LGT RAIN  61  59  93 N8        30.08S FOG
POUGHKEEPSIE   CLOUDY    62  58  86 N5        30.07F FOG
ALBANY         CLOUDY    63  57  81 N3        30.11S
$$

NJZ001-105-106-008-010-013-015-019>022-104-011700-
NEW JERSEY

CITY           SKY/WX    TMP DP  RH WIND       PRES   REMARKS
NEWARK/LIBERTY LGT RAIN  63  59  87 N10       30.05F
TETERBORO      LGT RAIN  64  56  75 N7        30.05S
CALDWELL       CLOUDY    61  58  90 NE5       30.07S
MORRISTOWN     DRIZZLE   63  61  94 NE5       30.07S
SOMERVILLE     CLOUDY    65  56  72 NE9       30.05R
LINDEN         CLOUDY    66  62  86 N8        30.07S
SUSSEX         CLOUDY    64  57  78 NE9       30.08S
ANDOVER          N/A     62  56  80 VRB3      30.08S
TRENTON        CLOUDY    66  56  70 NE7       30.05R
MILLVILLE      CLOUDY    67  58  72 NE8       30.03F
ATLANTIC CITY  CLOUDY    65  60  84 N10       30.03S
WRIGHTSTOWN    CLOUDY    64  60  85 NE10      30.03S
TOMS RIVER     CLOUDY    63  61  94 N5        30.04F
BELMAR         CLOUDY    63  57  82 N7        30.04S
$$

PAZ047>061-062-071-011700-
EASTERN PENNSYLVANIA

CITY           SKY/WX    TMP DP  RH WIND       PRES   REMARKS
PHILADELPHIA   PTSUNNY   71  57  61 E10       30.05S
ALLENTOWN      MOSUNNY   72  54  53 NE7       30.06F
SCRANTON       CLOUDY    68  55  63 NW3       30.07S
$$

CTZ002-004>006-009-010-012-RIZ004-006-007-MAZ004-011-015-011700-
SOUTHERN NEW ENGLAND
 IN CT

CITY           SKY/WX    TMP DP  RH WIND       PRES   REMARKS
BRADLEY INTL   LGT RAIN  61  57  87 N13       30.06F
HARTFORD       LGT RAIN  60  58  92 N9        30.06F
DANBURY        LGT RAIN  60  57  89 NE3       30.08S FOG
WTRBRY/OXFORD  LGT RAIN  57  54  88 NE9       30.08S FOG
BRIDGEPORT     LGT RAIN  62  59  90 N12       30.05S
MERIDEN        LGT RAIN  60  57  89 N6        30.06S FOG
NEW HAVEN      LGT RAIN  62  58  86 N12       30.04S
CHESTER        RAIN      57  57 100 N7        30.06S
GROTON         LGT RAIN  59  58  96 N10       30.02S FOG
WILLIMANTIC    LGT RAIN  59  57  93 N6        30.07R

 IN RI

CITY           SKY/WX    TMP DP  RH WIND       PRES   REMARKS
PROVIDENCE     RAIN      59  57  93 N10       30.05S FOG
BLOCK ISLAND   CLOUDY    61  55  82 NE13G23   30.01F
WESTERLY       CLOUDY    61  57  87 N8G17     30.03S

 IN MA

CITY           SKY/WX    TMP DP  RH WIND       PRES   REMARKS
BOSTON         RAIN      57  56  96 N15       30.08R FOG
WORCESTER      FOG       54  54 100 N10G18    30.09R VSB 1/4
WESTFIELD      LGT RAIN  60  56  86 N8        30.08S
PROVINCETOWN   CLOUDY    61  57  88 NE16      30.05R
NANTUCKET      LGT RAIN  63  61  93 NE17      29.98S
$$

ANZ330-335-338-340-345-350-353-355-011700-
COASTAL MARINE OBSERVATIONS


STATION/POSITION TIME  SKY/WX   TEMP    WIND        PRES    VSBY  WAVE
                                AIR SEA DIR/SP/G                  HT/PER
                 (UTC)          (F)     (DEG/KT/KT) (MB)    (MI)  (FT/S)
NY HARB ENTRANCE NOT AVBL
4S FIRE IS       1600               68                N/A           3/ 6
20S FIRE ISLAND  1600            63 67   20/ 14/ 16 1016.2          4/ 6
23SW MTP         1600                                 N/A           4/ 5
HUDSON CANYON    1600            66 70   20/ 17/ 19 1014.4          5/ 6
EXECUTION ROCKS  1600            64 68   20/ 10/ 12   N/A
WESTERN LI SOUND 1600            62      30/ 10/ 12   N/A           2/ 4
CENTRAL LI SOUND 1500            61 68   20/ 14/ 17   N/A           2/ 4
EASTERN LI SOUND 1500            62 66   20/ 14/ 17   N/A
ROBBINS REEF     1600            63     360/ 10/ 12 1016.3
$$


>>>>>>>>>>>>>>>>>>>>>>>>>>>> KEY <<<<<<<<<<<<<<<<<<<<<<<<<<<
>                                                          <
>     SKY/WX - SKY CONDITION/PRESENT WEATHER               <
>     TMP    - TEMPERATURE IN FAHRENHEIT                   <
>     DP     - DEWPOINT IN FAHRENHEIT                      <
>     RH     - RELATIVE HUMIDITY IN PERCENT                <
>     WIND   - DIRECTION AND SPEED IN MPH                  <
>     PRES   - MEAN SEA LEVEL PRESSURE IN INCHES OF HG     <
>     WCI    - WIND CHILL INDEX                            <
>     VSB    - VISIBILITY IN MILES                         <
>     HX     - HEAT INDEX                                  <
>     TC     - TEMPERATURE IN CELSIUS                      <
>     VRB    - VARIABLE WIND DIRECTION                     <
>                                                          <
>>>>>>>>>>>>>>>>>>>>>>>>>>>> KEY <<<<<<<<<<<<<<<<<<<<<<<<<<<





USA.gov is the U.S. government's official web portal to all federal, state and local government web resources and services.